Temperature
15 15 15 15 15 15 15 15 14 14 14 14 14 14 14 13 13 13 13 14 13 13 13 13 13 13 13 13 13 12 12 12 12 12 12 12 12 12 11 11 11 11 11
15 15 15 15 15 15 14 14 14 14 14 13 13 13 13 13 13 13 13 13 13 13 13 13 12 12 12 12 12 12 12 12 12 12 11 11 11 11 11 11 11 10 10
15 15 15 15 14 14 14 14 14 14 14 14 14 13 13 13 13 13 13 13 13 13 13 12 12 12 12 11 11 11 11 11 11 11 11 11 11 11 10 10 10 10 10
15 15 15 15 14 14 14 14 13 13 13 13 13 13 13 13 13 13 13 13 13 13 13 12 12 12 11 11 11 11 11 11 11 10 10 10 10 10 10 10 10 9 9
15 14 14 14 14 14 14 13 13 13 13 13 13 13 13 13 13 13 13 13 13 13 12 12 12 12 11 11 11 10 10 10 10 10 10 10 10 10 9 9 9 9 9
14 14 14 14 14 14 14 13 13 13 13 13 13 13 13 13 13 13 13 13 13 13 12 12 12 12 11 11 11 10 10 10 10 10 9 9 9 9 9 9 8 8 8
14 14 14 14 14 13 13 13 13 13 13 12 12 12 12 13 13 13 13 13 13 13 12 12 12 12 11 11 11 10 10 10 9 9 9 9 9 8 8 8 8 7 7
14 14 14 14 13 13 13 13 13 13 12 12 12 11 12 12 13 13 13 13 13 12 12 12 12 11 11 11 11 10 10 10 9 9 9 8 8 8 8 7 7 7 7
14 14 14 13 13 13 13 13 13 13 12 12 12 11 11 12 12 12 12 12 12 12 12 11 11 11 11 11 10 10 10 9 9 9 8 8 8 8 7 7 7 6 6
14 14 14 13 13 13 13 13 13 13 12 12 12 12 11 11 11 11 11 11 11 11 11 11 11 10 10 10 10 10 10 9 9 8 8 8 7 7 7 7 6 6 6
14 14 13 13 13 13 13 13 13 12 12 12 11 11 11 11 10 10 10 10 10 11 11 10 10 10 10 10 9 9 9 9 9 8 8 7 7 7 7 6 6 6 6
14 13 13 13 13 13 13 13 12 12 12 11 11 11 11 10 10 10 10 10 10 10 10 10 10 9 9 9 9 9 8 8 8 8 7 7 7 6 6 6 6 6 5
13 13 13 13 13 13 12 12 12 12 11 11 11 11 10 10 10 10 9 9 9 9 9 9 9 9 9 9 8 8 8 8 7 7 7 6 6 6 6 6 5 5 5
13 13 12 12 12 12 12 12 11 11 11 11 10 10 10 10 9 9 9 9 8 8 8 8 8 8 8 8 7 7 7 7 7 6 6 6 6 5 5 5 5 4 4
12 12 12 12 12 11 11 11 11 11 10 10 10 9 9 9 9 8 8 8 8 7 7 7 7 7 7 7 6 6 6 6 6 6 5 5 5 5 4 4 4 4 4
11 11 11 11 11 11 10 10 10 10 9 9 9 9 9 8 8 8 8 7 7 7 6 6 6 6 6 6 6 5 5 5 5 5 4 4 4 4 4 4 3 3 3
10 10 10 10 10 10 10 9 9 9 9 8 8 8 8 7 7 7 7 7 7 6 6 6 5 5 5 5 5 4 4 4 4 4 4 3 3 3 3 3 3 2 2
9 9 9 9 9 9 9 8 8 8 8 8 7 7 7 7 6 6 6 6 6 6 5 5 5 4 4 4 4 4 3 3 3 3 3 3 3 2 2 2 2 2 1
9 8 8 8 8 8 7 7 7 7 7 7 7 6 6 6 6 6 6 5 5 5 5 4 4 4 3 3 3 3 3 3 3 2 2 2 2 2 1 1 1 1 1
7 7 7 7 7 7 6 6 6 6 6 6 6 5 5 5 5 5 5 5 4 4 4 3 3 3 2 2 2 2 2 2 2 2 1 1 1 1 1 1 0 0 0
6 6 6 6 6 6 6 6 6 5 5 5 5 5 4 4 4 4 4 4 3 3 3 3 2 2 1 1 1 1 1 1 1 1 0 0 0 0 -0 -0 -0 -0 -1
5 5 5 5 5 5 5 5 4 4 4 4 4 4 3 3 3 3 3 3 3 2 2 2 1 1 0 0 0 -0 -0 -1 -1 -1 -0 -0 -1 -1 -1 -1 -1 -1 -1
4 4 4 4 4 4 4 4 4 3 3 3 3 3 3 2 2 2 2 2 2 2 1 1 0 0 -0 -0 -1 -1 -1 -1 -2 -2 -1 -1 -1 -2 -2 -1 -1 -1 -1
3 3 3 3 3 3 3 3 3 3 2 2 2 2 2 1 1 1 1 1 1 1 0 0 -0 -0 -1 -1 -1 -2 -2 -2 -2 -2 -2 -2 -2 -2 -2 -2 -2 -2 -2
3 2 2 2 2 2 2 2 2 2 2 1 1 1 1 1 1 1 0 0 -0 -0 -0 -1 -1 -1 -1 -2 -2 -2 -3 -3 -3 -3 -3 -3 -3 -3 -2 -2 -2 -2 -3
2 2 2 2 1 1 1 1 1 1 1 1 1 0 0 0 0 -0 -0 -1 -1 -1 -1 -1 -2 -2 -2 -2 -3 -3 -3 -4 -4 -4 -4 -4 -4 -4 -4 -3 -3 -3 -3
Wind_Speed
7 7 6 6 7 6 6 5 6 5 5 5 5 5 5 5 5 5 4 6 8 8 8 7 7 8 7 7 6 6 5 5 4 3 3 2 1 1 1 2 2 3 4
8 7 7 7 6 6 6 6 6 5 5 5 6 6 7 7 7 7 7 7 10 11 11 11 10 10 10 9 9 8 8 7 6 6 5 4 3 2 2 1 0 1 2
9 8 7 6 7 7 7 6 6 6 5 5 6 7 7 8 8 9 9 8 8 12 14 13 13 12 12 12 11 11 10 10 9 9 8 7 6 5 4 4 3 2 2
11 9 7 7 8 8 7 6 6 6 6 6 6 6 7 7 10 10 10 10 9 9 12 15 15 14 14 14 13 13 13 12 12 11 11 10 9 8 7 7 6 5 4
12 10 8 8 9 8 7 6 6 6 6 7 7 6 7 7 8 9 11 11 11 11 10 11 15 16 15 15 15 15 14 14 14 14 14 13 12 11 10 9 9 8 7
12 11 9 10 10 7 7 7 8 7 7 7 6 7 8 8 8 9 10 11 11 11 11 11 10 12 16 16 16 16 16 15 14 14 15 15 15 14 13 12 11 10 10
11 11 8 9 9 8 9 9 8 8 8 6 6 7 9 10 10 9 9 9 9 10 10 10 10 9 9 13 15 16 16 16 15 15 16 16 16 16 15 14 14 13 12
11 10 10 8 9 8 10 10 9 6 6 6 6 6 6 6 7 7 7 6 7 7 8 8 9 9 9 8 9 13 15 16 16 16 16 16 16 18 17 16 16 15 14
11 11 11 10 9 9 9 10 10 10 8 8 8 7 6 5 4 4 5 5 5 5 5 6 7 7 8 8 8 9 12 14 16 16 16 16 16 16 18 18 17 15 14
9 10 10 10 9 8 9 9 9 9 9 8 7 8 9 7 6 5 4 4 4 4 4 3 4 5 5 6 7 8 9 11 14 15 15 15 16 16 17 17 15 13 13
8 9 9 9 8 8 9 9 9 9 8 9 7 6 8 8 9 8 8 6 4 3 3 3 3 3 3 5 6 7 8 9 11 13 14 14 14 14 14 14 13 11 9
5 7 7 7 7 7 8 8 8 9 9 9 8 7 6 6 7 8 10 8 7 4 2 1 2 2 3 3 4 6 6 7 9 10 11 11 11 10 10 9 9 8 8
5 6 6 6 6 6 7 6 7 7 8 8 8 7 7 8 6 6 8 8 7 4 3 2 1 2 2 3 4 4 4 5 6 7 8 8 7 6 5 5 5 6 6
4 4 5 5 5 6 5 5 5 6 6 7 7 7 6 5 5 6 6 6 6 5 4 3 0 2 2 2 4 3 3 4 4 5 5 5 4 4 4 4 5 5 6
3 4 4 4 4 4 5 5 4 5 4 4 4 4 4 3 3 4 4 5 5 6 5 3 1 2 2 3 4 3 3 4 4 4 4 4 4 4 4 4 4 5 5
2 3 3 3 3 3 3 3 3 3 3 2 2 3 2 2 1 1 2 3 3 4 3 1 1 1 2 2 3 3 3 4 5 5 5 4 4 4 4 4 4 5 6
2 2 2 2 2 1 2 2 2 2 3 2 2 2 1 1 1 0 0 0 1 2 3 1 1 1 1 2 2 3 3 3 3 6 6 5 4 4 4 5 5 5 6
1 1 1 1 1 1 1 2 2 2 2 2 2 2 2 2 2 2 1 1 1 0 1 2 1 1 1 1 2 2 2 3 3 5 6 5 4 4 4 4 5 6 7
2 2 2 2 2 2 2 2 2 3 3 3 2 2 2 3 3 2 2 2 2 1 1 2 2 1 0 1 1 1 2 2 3 4 4 4 4 5 6 7 7 8 8
2 3 3 3 2 2 3 3 4 4 4 4 4 3 3 3 3 3 3 3 2 2 2 2 2 1 0 0 1 1 2 2 3 3 3 4 5 6 6 7 7 8 9
3 3 3 3 3 2 2 4 4 5 5 5 5 4 4 5 5 4 3 2 2 2 2 2 1 1 1 0 1 1 2 3 2 2 4 4 4 4 4 5 6 8 9
3 3 3 3 3 3 5 5 4 5 5 5 5 5 5 5 6 6 6 5 3 2 1 1 1 2 1 1 1 1 2 3 2 1 4 5 4 4 4 5 6 9 10
3 3 3 4 4 5 6 6 5 4 4 4 4 4 3 4 4 4 5 5 5 4 2 1 2 1 1 1 1 2 2 3 4 4 5 4 3 4 4 6 8 10 10
3 3 3 4 4 5 6 7 7 5 4 4 3 3 4 3 3 3 3 2 2 2 2 1 1 1 1 1 2 2 2 4 5 4 3 3 4 5 5 7 6 7 7
4 3 3 4 4 5 6 7 5 4 4 4 3 2 2 2 4 3 2 1 1 1 2 2 1 1 1 2 2 2 3 3 3 3 2 3 3 5 6 5 4 5 7
4 4 4 4 4 4 5 6 5 3 3 3 2 2 2 2 3 3 1 2 1 1 1 1 1 1 2 2 3 4 3 4 3 3 1 2 3 4 4 3 4 6 8
Wind_Direction
190 188 192 191 196 196 196 204 212 210 220 226 232 242 247 250 251 252 242 221 237 245 244 239 234 228 224 223 218 212 208 204 200 195 189 181 166 124 68 48 45 45 40
197 196 200 201 206 209 211 214 219 222 230 238 244 245 249 251 252 254 258 238 230 237 243 244 242 239 235 232 228 223 219 218 217 215 215 214 216 221 229 246 294 1 8
202 203 208 208 212 215 216 222 224 233 240 244 249 252 255 255 253 253 254 255 245 233 235 242 245 244 242 240 236 230 226 223 223 222 222 223 224 226 231 238 246 257 279
207 207 212 216 217 216 218 221 227 232 237 243 250 251 252 252 256 256 254 250 251 247 236 234 241 244 245 244 243 239 234 229 226 225 225 226 227 228 231 235 239 246 253
209 211 217 220 216 218 221 223 231 236 243 247 253 258 257 254 255 253 254 253 249 247 250 238 236 242 246 247 248 248 243 236 231 228 227 227 228 230 233 235 238 244 248
211 213 218 222 218 219 222 222 228 233 245 254 259 261 260 257 253 251 252 253 249 246 248 252 246 242 240 244 250 252 252 247 239 234 232 231 230 231 234 237 242 245 248
209 212 217 221 216 220 225 227 229 234 237 241 254 265 261 252 250 247 247 250 248 246 248 250 251 253 247 238 242 250 254 252 249 243 239 237 235 234 235 237 242 246 249
210 211 217 220 217 222 227 228 223 230 234 220 234 262 276 262 236 237 239 241 249 245 245 248 250 251 256 253 245 243 250 253 254 252 247 243 239 239 238 238 243 247 247
214 215 220 224 224 224 228 226 220 224 233 225 224 235 253 265 285 226 227 233 240 243 248 249 251 255 257 257 261 253 250 253 256 258 257 249 243 245 242 243 245 243 244
217 220 223 225 227 226 232 231 226 225 232 237 229 234 245 268 269 272 233 226 236 248 252 252 259 261 263 262 262 269 266 258 257 258 258 256 252 250 249 247 245 246 246
217 220 224 225 229 230 233 234 231 229 229 236 233 228 237 245 247 255 267 254 238 237 251 261 268 272 276 272 275 279 273 265 262 261 260 262 264 261 259 252 247 248 248
215 220 224 228 232 233 234 235 233 231 232 236 237 232 230 233 233 236 251 258 257 243 234 251 270 282 290 287 290 296 286 279 273 270 268 269 275 277 274 265 258 251 246
218 222 222 227 232 236 238 238 236 236 233 233 235 236 237 240 243 241 251 261 258 243 227 219 276 293 306 308 312 318 305 301 294 287 281 282 287 292 294 286 279 267 264
219 221 224 229 235 237 237 234 235 236 236 235 239 238 238 241 241 238 246 254 257 244 227 221 160 11 348 336 347 338 335 337 316 308 304 308 322 322 309 294 283 286 281
213 216 219 227 233 238 239 235 233 235 232 235 240 239 241 251 253 250 249 247 250 254 242 212 175 48 19 17 7 11 20 18 3 349 334 328 331 326 313 301 288 283 278
203 213 218 222 225 231 232 225 225 226 215 215 220 220 226 238 248 258 247 246 249 255 247 141 113 54 41 46 27 25 29 13 10 354 337 328 321 312 303 297 284 276 274
190 200 200 201 204 208 211 207 204 201 195 183 176 178 172 163 161 137 146 177 226 240 232 152 97 60 44 36 24 27 16 360 0 4 352 341 325 308 297 289 284 280 277
138 143 149 156 151 154 164 178 168 163 169 164 156 147 137 119 115 97 102 105 102 66 200 179 140 118 61 23 9 20 15 359 351 358 348 336 324 316 311 303 293 285 281
116 112 117 121 114 107 113 120 129 124 116 110 108 120 121 128 117 96 94 95 88 82 84 138 129 106 96 29 349 355 351 344 346 349 347 342 329 315 304 295 287 285 283
112 102 94 94 96 100 109 117 120 117 108 98 91 89 93 108 115 114 103 98 98 101 100 110 116 127 133 7 287 318 314 329 328 333 327 320 308 300 291 287 284 284 284
112 110 109 104 102 102 114 123 121 120 118 110 97 90 84 84 86 92 97 104 107 108 114 125 140 166 180 227 285 322 305 319 316 319 315 309 303 291 281 271 272 276 276
123 121 121 119 112 106 117 121 126 126 124 123 115 105 98 92 92 90 87 78 71 96 134 154 192 212 216 240 276 287 304 315 302 341 317 306 294 284 281 276 282 282 279
133 130 125 119 114 116 127 127 124 125 124 124 125 124 109 100 100 103 96 89 76 64 52 227 216 233 241 247 264 274 292 295 288 316 313 292 287 285 287 283 286 285 280
147 142 135 132 127 126 129 128 125 119 117 121 126 133 132 129 115 113 106 88 78 73 55 348 278 279 285 267 249 255 269 281 283 277 275 276 297 297 300 292 286 285 281
155 154 150 151 146 140 142 142 138 133 133 133 131 135 142 148 144 142 140 135 130 103 81 60 24 358 310 284 269 253 259 278 287 277 263 272 299 309 299 285 275 272 277
166 160 156 162 163 160 160 163 165 159 157 156 156 159 170 181 168 178 196 201 223 219 218 213 221 216 239 228 245 252 251 258 268 275 224 271 297 318 303 284 279 275 274
Height
1570 1572 1573 1574 1575 1576 1577 1578 1579 1579 1580 1580 1580 1580 1580 1580 1580 1579 1579 1578 1577 1577 1576 1576 1575 1574 1574 1573 1572 1571 1571 1570 1569 1569 1568 1567 1567 1566 1565 1564 1564 1563 1562
1569 1570 1571 1572 1574 1575 1576 1576 1577 1578 1578 1578 1579 1578 1578 1578 1578 1577 1577 1576 1575 1575 1574 1574 1573 1573 1572 1571 1571 1570 1569 1568 1568 1567 1567 1566 1566 1565 1564 1564 1563 1562 1562
1567 1568 1569 1571 1572 1573 1573 1574 1575 1575 1576 1576 1576 1576 1576 1576 1575 1575 1574 1574 1573 1572 1572 1572 1571 1570 1570 1569 1568 1568 1567 1566 1566 1565 1565 1564 1564 1563 1563 1562 1562 1561 1560
1565 1566 1567 1568 1570 1570 1571 1572 1573 1573 1573 1574 1574 1573 1573 1572 1572 1572 1571 1571 1570 1570 1569 1569 1568 1568 1567 1567 1566 1565 1565 1564 1563 1563 1563 1562 1561 1561 1560 1560 1560 1559 1559
1562 1563 1564 1566 1567 1568 1568 1569 1570 1570 1571 1571 1571 1570 1570 1569 1569 1568 1568 1567 1567 1566 1566 1565 1565 1564 1564 1563 1563 1562 1562 1561 1560 1560 1559 1559 1559 1558 1558 1557 1557 1557 1556
1559 1560 1562 1563 1564 1564 1565 1566 1566 1567 1567 1568 1567 1566 1566 1565 1564 1564 1564 1564 1563 1562 1562 1561 1561 1560 1560 1559 1559 1558 1558 1557 1557 1556 1556 1555 1555 1555 1554 1554 1554 1554 1553
1556 1557 1558 1559 1560 1561 1562 1562 1563 1563 1563 1564 1564 1563 1562 1561 1560 1560 1560 1559 1559 1558 1558 1557 1557 1556 1555 1555 1554 1554 1554 1553 1553 1552 1552 1551 1551 1550 1550 1550 1550 1550 1550
1553 1553 1554 1556 1556 1557 1558 1558 1559 1559 1559 1560 1560 1560 1559 1558 1555 1555 1555 1555 1555 1554 1554 1553 1553 1552 1551 1550 1550 1549 1549 1548 1548 1548 1547 1547 1546 1546 1546 1546 1545 1545 1545
1549 1549 1550 1551 1552 1553 1553 1554 1554 1554 1555 1555 1555 1556 1556 1554 1553 1551 1550 1550 1550 1550 1549 1549 1548 1547 1547 1546 1545 1544 1544 1543 1543 1543 1542 1542 1542 1541 1541 1541 1541 1541 1541
1544 1545 1546 1547 1547 1548 1548 1549 1549 1549 1549 1549 1550 1550 1550 1550 1550 1547 1546 1545 1545 1545 1545 1544 1543 1542 1541 1540 1539 1539 1538 1538 1537 1537 1537 1537 1536 1536 1536 1536 1536 1536 1536
1539 1539 1540 1541 1542 1542 1542 1543 1543 1543 1543 1544 1544 1543 1544 1544 1543 1543 1541 1541 1540 1539 1539 1538 1538 1537 1536 1535 1534 1533 1532 1532 1531 1531 1531 1531 1531 1531 1531 1531 1531 1531 1531
1533 1534 1535 1535 1536 1536 1536 1537 1537 1537 1537 1537 1537 1537 1537 1537 1537 1536 1535 1534 1534 1534 1533 1532 1532 1531 1530 1529 1528 1527 1527 1526 1526 1526 1525 1525 1525 1525 1526 1526 1526 1526 1526
1528 1528 1529 1529 1530 1530 1530 1530 1530 1530 1530 1530 1530 1530 1530 1530 1531 1530 1530 1529 1528 1527 1527 1526 1526 1525 1525 1524 1523 1522 1521 1521 1520 1520 1520 1519 1519 1519 1520 1520 1520 1520 1521
1522 1523 1523 1523 1524 1524 1524 1524 1524 1524 1524 1524 1524 1524 1524 1524 1524 1524 1524 1524 1522 1521 1521 1520 1520 1520 1519 1518 1517 1517 1516 1515 1515 1514 1514 1514 1514 1514 1514 1515 1515 1515 1515
1517 1517 1517 1517 1518 1518 1518 1518 1518 1518 1517 1517 1517 1517 1517 1517 1517 1517 1518 1518 1518 1516 1515 1515 1515 1514 1514 1513 1512 1511 1510 1510 1509 1509 1509 1508 1508 1508 1508 1509 1509 1509 1509
1512 1512 1512 1512 1512 1512 1512 1512 1512 1511 1511 1511 1511 1511 1511 1511 1511 1511 1512 1512 1512 1512 1510 1510 1509 1509 1509 1508 1507 1506 1505 1505 1504 1504 1504 1503 1503 1503 1503 1503 1503 1503 1503
1507 1507 1507 1507 1507 1507 1507 1507 1506 1506 1506 1506 1506 1506 1506 1506 1506 1506 1506 1506 1506 1506 1506 1505 1505 1504 1504 1503 1502 1502 1501 1500 1500 1499 1499 1498 1498 1498 1498 1498 1498 1497 1498
1502 1502 1502 1502 1502 1502 1502 1502 1502 1502 1502 1502 1502 1501 1501 1501 1502 1501 1501 1501 1501 1501 1501 1500 1500 1500 1499 1499 1498 1497 1496 1496 1495 1495 1494 1494 1494 1493 1493 1493 1493 1492 1492
1498 1498 1498 1498 1498 1498 1498 1498 1498 1498 1498 1498 1498 1498 1497 1498 1497 1497 1497 1497 1497 1497 1497 1496 1496 1496 1495 1495 1494 1493 1493 1492 1491 1491 1490 1490 1489 1488 1488 1488 1488 1487 1487
1494 1494 1494 1494 1494 1494 1494 1494 1494 1494 1494 1494 1494 1494 1494 1494 1494 1493 1493 1493 1493 1493 1493 1492 1492 1492 1492 1491 1490 1490 1489 1488 1487 1487 1486 1485 1485 1484 1483 1483 1483 1482 1482
1490 1490 1490 1490 1490 1490 1490 1490 1490 1490 1490 1490 1490 1490 1490 1490 1490 1490 1490 1490 1490 1490 1489 1489 1489 1489 1488 1487 1487 1486 1486 1485 1483 1483 1482 1481 1481 1480 1479 1478 1478 1477 1477
1487 1487 1487 1487 1487 1487 1487 1487 1487 1487 1487 1487 1487 1487 1487 1487 1487 1487 1487 1487 1487 1487 1486 1486 1486 1486 1485 1484 1484 1483 1482 1481 1481 1480 1479 1478 1477 1476 1475 1474 1473 1473 1472
1484 1484 1484 1484 1484 1484 1484 1485 1485 1485 1485 1485 1485 1485 1485 1485 1485 1484 1484 1484 1484 1484 1484 1484 1483 1482 1482 1481 1481 1480 1479 1479 1478 1476 1475 1474 1474 1472 1471 1470 1469 1468 1467
1481 1482 1482 1482 1482 1482 1482 1482 1482 1482 1482 1482 1482 1482 1482 1482 1482 1482 1482 1481 1481 1481 1480 1480 1480 1479 1479 1478 1478 1477 1476 1475 1474 1473 1472 1471 1470 1469 1467 1466 1464 1463 1462
1479 1479 1479 1479 1480 1480 1480 1480 1480 1480 1480 1480 1480 1480 1480 1480 1480 1480 1479 1479 1479 1478 1478 1477 1476 1476 1475 1475 1474 1474 1473 1472 1471 1470 1469 1468 1466 1464 1463 1461 1460 1459 1458
1476 1477 1477 1477 1477 1478 1478 1478 1478 1478 1478 1478 1478 1478 1478 1478 1478 1477 1477 1477 1476 1476 1475 1474 1473 1473 1472 1471 1471 1471 1470 1469 1468 1467 1466 1465 1462 1461 1458 1457 1456 1455 1454